Location: B�hl
(48.6968°N, 8.1352°E)
Time: 01:06:24
(UTC+00:00)

CENTAUR R/B - Pass Details

Date: 08 March 2021
Orbit: 742 x 1446 km, 63.4° (Epoch: 31 March)

Event Time Altitude Azimuth Distance (km) Brightness Sun altitude
Rises 18:27:02 0° 178° (S) 3,362 5.2 -11.5°
Reaches altitude 10° 18:29:41 10° 166° (SSE) 2,515 4.5 -11.9°
Maximum altitude 18:34:29 27° 111° (ESE) 1,757 3.3 -12.7°
Drops below altitude 10° 18:39:58 10° 56° (ENE) 2,911 4.6 -13.6°
Sets 18:43:16 0° 46° (NE) 3,999 5.4 -14.1°
